CW2989 Weather Reports


time (UTC)temp
F
wind
direction
speed
knots
gust
knots
rain 1hr
in
rain 24hr
in
rain mn
in
humidity
%
barometer
mb
20260509223700 89 41 0.0 0.0 0.00 0.00 0.00 60 990.7
20260509222707 89 42 0.0 0.0 0.00 0.00 0.00 60 990.7
20260509220524 89 32 0.0 4.3 0.00 0.00 0.00 61 990.7
20260509215543 89 46 0.0 2.6 0.00 0.00 0.00 62 990.8
20260509214530 88 43 0.0 0.0 0.00 0.00 0.00 61 990.8
20260509212359 88 42 0.9 5.2 0.00 0.00 0.00 63 991.2
20260509211418 88 34 0.0 4.3 0.00 0.00 0.00 62 991.2
20260509204246 87 215 0.0 2.6 0.00 0.00 0.00 62 991.9
20260509203226 87 212 0.9 4.3 0.00 0.00 0.00 65 991.9
20260509202244 86 248 0.9 4.3 0.00 0.00 0.00 63 992.3
20260509201211 86 276 0.9 4.3 0.00 0.00 0.00 63 992.4
20260509200211 86 273 0.9 4.3 0.00 0.00 0.00 64 992.4
20260509195221 85 293 0.9 4.3 0.00 0.00 0.00 67 992.4
20260509194242 85 269 0.9 3.5 0.00 0.00 0.00 68 992.5
20260509193231 84 273 0.9 3.5 0.00 0.00 0.00 70 992.5
20260509192245 83 293 0.9 5.2 0.00 0.00 0.00 74 992.6
20260509191234 82 269 1.7 5.2 0.00 0.00 0.00 76 993.0
20260509190231 82 263 0.9 4.3 0.00 0.00 0.00 79 993.0
20260509185255 80 280 1.7 4.3 0.00 0.00 0.00 83 993.1
20260509184259 78 277 1.7 4.3 0.00 0.00 0.00 88 993.3
20260509183317 76 268 0.0 2.6 0.00 0.00 0.00 88 993.3
20260509182245 77 284 1.7 4.3 0.00 0.00 0.00 89 993.6
20260509181225 78 292 0.0 3.5 0.00 0.00 0.00 89 993.8
20260509180228 79 286 0.9 3.5 0.00 0.00 0.00 84 993.8
20260509174046 81 29 0.0 0.0 0.00 0.00 0.00 78 994.0
20260509173100 81 29 1.7 5.2 0.00 0.00 0.00 77 994.0
20260509172027 82 35 1.7 5.2 0.00 0.00 0.00 77 994.2
20260509171028 82 36 1.7 4.3 0.00 0.00 0.00 79 994.2
20260509170046 81 36 0.9 7.0 0.00 0.00 0.00 79 994.2
20260509163943 81 41 1.7 8.7 0.00 0.00 0.00 82 994.2
20260509163005 81 38 2.6 8.7 0.00 0.00 0.00 81 994.2
20260509161958 82 30 0.9 7.0 0.00 0.00 0.00 80 994.2
20260509161015 82 49 0.9 7.0 0.00 0.00 0.00 82 994.1
20260509160031 83 49 0.9 7.0 0.00 0.00 0.00 80 994.1
20260509153859 82 51 0.0 2.6 0.00 0.00 0.00 78 993.4
20260509152842 81 50 0.0 0.9 0.00 0.00 0.00 79 993.6
20260509150718 80 50 0.0 0.0 0.00 0.00 0.00 84 993.6
20260509145725 79 50 0.0 2.6 0.00 0.00 0.00 87 993.4
20260509144658 78 49 0.0 4.3 0.00 0.00 0.00 88 993.4
20260509143701 77 46 0.0 4.3 0.00 0.00 0.00 89 993.2
20260509142640 76 53 0.0 1.7 0.00 0.00 0.00 91 993.3
20260509141620 75 50 0.9 2.6 0.00 0.00 0.00 92 993.3
20260509132139 72 34 0.9 7.8 0.00 0.00 0.00 97 992.7
20260509131142 71 30 1.7 5.2 0.00 0.00 0.00 97 992.7
20260509130145 71 14 0.9 3.5 0.00 0.00 0.00 97 992.7
20260509125202 71 280 0.0 2.6 0.00 0.00 0.00 97 992.7
20260509124133 70 168 0.0 1.7 0.00 0.00 0.00 97 993.2
20260509123140 70 171 0.0 0.9 0.00 0.00 0.00 97 993.2
20260509122151 70 171 0.0 0.0 0.00 0.00 0.00 97 993.6
20260509121216 70 171 0.0 0.0 0.00 0.00 0.00 96 993.6
20260509120212 70 171 0.0 0.0 0.00 0.00 0.00 97 993.6
20260509115234 71 171 0.0 2.6 0.00 0.00 0.00 97 993.8
20260509114217 71 55 0.0 2.6 0.00 0.00 0.00 97 994.3
20260509113208 71 43 0.0 0.0 0.00 0.00 0.00 97 994.3
20260509112148 71 43 0.0 0.0 0.00 0.00 0.00 97 994.3
20260509111133 71 43 0.0 0.0 0.00 0.00 0.00 97 994.5
20260509110107 71 43 0.0 0.0 0.00 0.00 0.00 97 994.5
20260509105129 71 43 0.0 0.0 0.00 0.00 0.00 97 994.8
20260509104115 71 42 0.0 0.9 0.00 0.00 0.00 97 994.8
20260509103111 71 42 0.0 1.7 0.00 0.00 0.00 96 994.8
20260509102113 71 41 0.0 0.0 0.00 0.00 0.00 96 994.8
20260509101123 71 41 0.0 0.9 0.00 0.00 0.00 97 994.5
20260509100112 71 42 0.0 1.7 0.00 0.00 0.00 96 994.5
20260509095103 71 38 0.0 0.9 0.00 0.00 0.00 96 993.8
20260509094054 71 37 0.0 0.9 0.00 0.00 0.00 96 993.7
20260509093114 71 37 0.0 0.0 0.00 0.00 0.00 96 993.7
20260509092127 71 37 0.0 0.0 0.00 0.00 0.00 95 993.1
20260509091120 71 37 0.0 0.0 0.00 0.00 0.00 95 993.2
20260509090136 71 37 0.0 0.0 0.00 0.00 0.00 95 993.2
20260509085135 71 37 0.0 0.0 0.00 0.00 0.00 95 993.3
20260509081820 71 37 0.0 0.0 0.00 0.00 0.00 95 993.7
20260509074428 71 37 0.0 1.7 0.00 0.00 0.00 95 993.9
20260509073440 71 37 0.0 0.0 0.00 0.00 0.00 95 993.9
20260509072428 71 37 0.0 0.0 0.00 0.00 0.00 95 994.1
20260509071421 71 37 0.0 0.0 0.00 0.00 0.00 95 994.1
20260509065231 71 37 0.0 0.0 0.00 0.00 0.00 95 993.9
20260509064248 71 37 0.0 0.0 0.00 0.00 0.00 95 994.2
20260509063255 71 37 0.0 0.0 0.00 0.00 0.00 95 994.2
20260509062234 71 37 0.0 0.0 0.00 0.00 0.00 95 994.4
20260509061245 71 37 0.0 0.9 0.00 0.00 0.00 95 993.9
20260509060242 70 37 0.0 0.0 0.00 0.00 0.00 95 993.9
20260509055225 70 37 0.0 0.0 0.00 0.00 0.00 95 993.9
20260509054243 70 37 0.0 0.0 0.00 0.00 0.00 94 993.1
20260509053241 70 37 0.0 0.0 0.00 0.00 0.00 93 993.1
20260509052238 70 37 0.0 0.0 0.00 0.00 0.00 93 992.5
20260509051256 71 37 0.0 0.9 0.00 0.00 0.00 93 992.3
20260509050256 71 37 0.0 0.0 0.00 0.00 0.00 92 992.3
20260509045306 71 37 0.0 0.0 0.00 0.00 0.00 92 992.3
20260509043213 71 37 0.0 0.0 0.00 0.00 0.00 92 992.9
20260509042216 71 37 0.0 0.0 0.00 0.00 0.00 92 993.0
20260509041221 71 37 0.0 0.0 0.00 0.00 0.00 92 993.3
20260509040240 71 37 0.0 0.0 0.00 0.00 0.00 92 993.3
20260509034034 72 37 0.0 0.0 0.00 0.00 0.00 90 992.9
20260509033017 72 37 0.0 0.0 0.00 0.00 0.00 91 992.9
20260509031959 73 37 0.0 0.0 0.00 0.00 0.00 90 992.8
20260509030951 73 37 0.0 1.7 0.00 0.00 0.00 90 992.4
20260509030006 73 37 0.0 1.7 0.00 0.00 0.00 89 992.4
20260509025006 74 38 0.0 1.7 0.00 0.00 0.00 88 992.4
20260509024025 74 38 0.0 1.7 0.00 0.00 0.00 88 992.4
20260509023037 75 38 0.9 3.5 0.00 0.00 0.00 87 992.4
20260509022055 75 36 0.0 3.5 0.00 0.00 0.00 87 992.3
20260509021102 75 36 0.0 0.0 0.00 0.00 0.00 87 991.9
20260509020059 75 36 0.0 5.2 0.00 0.00 0.00 87 991.9
20260509015059 75 37 0.0 1.7 0.00 0.00 0.00 87 991.9
20260509014111 75 38 0.0 1.7 0.00 0.00 0.00 87 991.8
20260509013040 75 37 0.0 0.0 0.00 0.00 0.00 86 991.8
20260509010921 75 42 0.9 4.3 0.00 0.00 0.00 85 991.5
20260509004745 75 33 0.0 0.0 0.00 0.00 0.00 85 991.8
20260509003742 75 35 0.9 2.6 0.00 0.00 0.00 85 991.8
20260509002727 75 27 0.0 2.6 0.00 0.00 0.00 86 991.8
20260509001710 75 20 0.0 1.7 0.00 0.00 0.00 86 991.8
20260509000718 75 17 0.0 2.6 0.00 0.00 0.00 85 991.9
20260508235725 75 5 0.0 1.7 0.00 0.00 0.00 85 991.9
20260508234720 75 355 0.0 1.7 0.00 0.00 0.00 85 991.9
20260508233654 75 300 0.0 2.6 0.00 0.00 0.00 84 991.9
20260508232631 76 343 0.0 2.6 0.00 0.00 0.00 84 991.9
20260508231607 76 16 0.9 3.5 0.00 0.00 0.00 83 991.9
20260508225430 77 43 0.0 5.2 0.00 0.00 0.00 82 991.9